Location: Brompton
(51.4000°N, 0.5333°E)
Time: 14:45:13
(UTC+00:00)

USA 215 - Pass Details

Date: 03 October 2021
Orbit: 1102 x 1106 km, 123.0° (Epoch: 22 October)

Event Time Altitude Azimuth Distance (km) Brightness Sun altitude
Exits shadow 18:35:45 14° 91° (E) 2,702 4.6 -11.0°
Maximum altitude 18:41:29 62° 14° (NNE) 1,229 3.5 -11.8°
Drops below altitude 10° 18:47:55 10° 296° (WNW) 2,965 6.8 -12.8°
Sets 18:50:25 0° 293° (WNW) 3,924 7.9 -13.2°
